DateTime,DeltaTime,Roll,TargetAngle,Position,Power
2022-05-24 15:55:13.558,0,0.37,5.31,-3,-33.9
2022-05-24 15:55:13.671,0.113004818558693,0.7,4.8,0,-26.65
2022-05-24 15:55:13.786,0.228001177310944,0.41,1,2,6.01
2022-05-24 15:55:13.896,0.337998569011688,0.2,0.57,2,9.12
2022-05-24 15:55:14.011,0.453004986047745,-0.18,-1.63,2,17.09
2022-05-24 15:55:14.126,0.568001344799995,-0.76,-4.58,2,29.31
2022-05-24 15:55:14.241,0.682997703552246,-1.05,-4.42,0,25.24
2022-05-24 15:55:14.355,0.796998292207718,-0.68,-0.12,-1,-5.53
2022-05-24 15:55:14.469,0.91099888086319,-0.06,3.19,-2,-18.79
2022-05-24 15:55:14.584,1.02600529789925,0.48,4.93,0,-27.22
2022-05-24 15:55:14.699,1.1410016566515,0.81,5.13,2,-15.25
2022-05-24 15:55:14.813,1.25500224530697,1.01,5.37,3,-9.28
2022-05-24 15:55:14.929,1.3710044324398,1.09,5.09,4,-5.52
2022-05-24 15:55:15.043,1.48500502109528,0.76,2.14,4,12.41
2022-05-24 15:55:15.158,1.60000137984753,0.00999999999999998,-2.54,3,30.81
2022-05-24 15:55:15.273,1.71499773859978,-0.88,-6.38,3,39.44
2022-05-24 15:55:15.383,1.82500518858433,-0.87,-2.42,-2,16.78
2022-05-24 15:55:15.498,1.94000154733658,-0.23,2.67,-4,-28.01
2022-05-24 15:55:15.613,2.05499790608883,0.21,3.43,-2,-29.02
2022-05-24 15:55:15.728,2.17000432312489,0.36,2.76,1,-12.7
2022-05-24 15:55:15.842,2.28400491178036,0.77,5.36,2,-14.64
2022-05-24 15:55:15.957,2.39900127053261,1.08,6.09,2,-14.24
2022-05-24 15:55:16.073,2.51500345766544,0.86,2.98,4,0.62
2022-05-24 15:55:16.186,2.62799821794033,-0.07,-3.59,4,39.32
2022-05-24 15:55:16.301,2.74300463497639,-0.9,-6.2,1,41.85
2022-05-24 15:55:16.415,2.85700522363186,-0.8,-1.81,-2,2.34
2022-05-24 15:55:16.529,2.97100581228733,-0.26,2.13,-4,-22.42
2022-05-24 15:55:16.645,3.08699794113636,0.41,5.19,-4,-38.98
2022-05-24 15:55:16.759,3.20099852979183,0.48,2.82,1,-21.34
2022-05-24 15:55:16.874,3.31600494682789,0.62,3.66,4,-4.26
2022-05-24 15:55:16.984,3.42600233852863,0.92,5.44,5,-3.88
2022-05-24 15:55:17.099,3.54099869728088,0.91,4.07,4,6.29
2022-05-24 15:55:17.213,3.65499928593636,0.00999999999999998,-3.14,3,34.31
2022-05-24 15:55:17.328,3.77000570297241,-0.96,-7.1,1,41.61
2022-05-24 15:55:17.443,3.88500206172466,-1.12,-4.05,-2,13.4
2022-05-24 15:55:17.559,4.0010042488575,-0.42,2.22,-4,-25.89
2022-05-24 15:55:17.673,4.11500483751297,0.26,4.66,-3,-36.33
2022-05-24 15:55:17.788,4.23000119626522,0.68,5.11,1,-28.53
2022-05-24 15:55:17.902,4.34400178492069,0.97,5.57,5,-12.29
2022-05-24 15:55:18.016,4.45800237357616,1.24,6.52,6,-2.1
2022-05-24 15:55:18.131,4.57299873232841,1.08,4.01,6,11.33
2022-05-24 15:55:18.246,4.68800514936447,0.15,-2.75,5,40.71
2022-05-24 15:55:18.361,4.80300150811672,-1.02,-8.17,2,54.78
2022-05-24 15:55:18.475,4.91700209677219,-1.18,-4.32,-3,14.33
2022-05-24 15:55:18.586,5.02800531685352,-0.56,1.41,-4,-29.76
2022-05-24 15:55:18.700,5.142005905509,-0.09,2.47,-4,-26.42
2022-05-24 15:55:18.814,5.25600649416447,0.27,3.29,0,-28.41
2022-05-24 15:55:18.930,5.3719986230135,0.72,5.35,2,-18.28
2022-05-24 15:55:19.044,5.48599921166897,1.24,7.64,4,-22.79
2022-05-24 15:55:19.160,5.6020013988018,1.06,3.89,6,5.85
2022-05-24 15:55:19.274,5.71600198745728,-0.1,-4.75,6,51.55
2022-05-24 15:55:19.389,5.83099834620953,-1.07,-7.43,3,53.11
2022-05-24 15:55:19.503,5.944998934865,-1.01,-2.74,-3,11.08
2022-05-24 15:55:19.618,6.06000535190105,-0.51,1,-5,-26.99
2022-05-24 15:55:19.733,6.17500171065331,-0.31,0.5,-4,-22.11
2022-05-24 15:55:19.847,6.28900229930878,-0.06,1.62,-2,-21.24
2022-05-24 15:55:19.963,6.40500448644161,0.45,4.62,0,-26.59
2022-05-24 15:55:20.078,6.52000084519386,0.91,6.14,3,-23.52
2022-05-24 15:55:20.192,6.63400143384933,0.84,3.5,6,3.52
2022-05-24 15:55:20.302,6.74399882555008,0.00999999999999998,-2.83,4,42.77
2022-05-24 15:55:20.417,6.85900524258614,-0.69,-4.92,2,31.76
2022-05-24 15:55:20.531,6.97300583124161,-0.94,-3.84,-2,17.09
2022-05-24 15:55:20.647,7.08899796009064,-0.97,-2.98,-4,-2.67
2022-05-24 15:55:20.760,7.20200277864933,-0.62,-0,-4,-21.12
2022-05-24 15:55:20.876,7.31800496578217,0.24,5.39,-4,-41.91
2022-05-24 15:55:20.990,7.43200555443764,0.74,5.64,0,-36.94
2022-05-24 15:55:21.105,7.54700191318989,0.65,2.76,5,-3.07
2022-05-24 15:55:21.219,7.66100250184536,0.46,1.65,6,18.2
2022-05-24 15:55:21.335,7.7770046889782,0.23,0.56,5,20.93
2022-05-24 15:55:21.450,7.89200104773045,-0.37,-3.27,3,32.86
2022-05-24 15:55:21.563,8.00500586628914,-1.04,-6.07,1,33.9
2022-05-24 15:55:21.678,8.12000222504139,-1.21,-4.44,-2,15.53
2022-05-24 15:55:21.793,8.23499858379364,-0.77,-0.22,-4,-15.31
2022-05-24 15:55:21.904,8.34600180387497,0.2,5.71,-4,-45.69
2022-05-24 15:55:22.018,8.46000239253044,0.77,6.1,1,-37.78
2022-05-24 15:55:22.133,8.57499875128269,0.8,3.81,3,-1.73
2022-05-24 15:55:22.248,8.69000516831875,1.01,5.39,5,-9.45
2022-05-24 15:55:22.362,8.80400575697422,1.08,5.04,5,1.52
2022-05-24 15:55:22.478,8.91999788582325,0.43,-0.5,5,26.2
2022-05-24 15:55:22.592,9.03399847447872,-0.64,-6.3,3,48.43
2022-05-24 15:55:22.706,9.14799906313419,-0.86,-3.44,0,17.39
2022-05-24 15:55:22.821,9.26300548017025,-0.28,2.27,-3,-19.24
2022-05-24 15:55:22.935,9.37700606882572,0.4,5.22,-2,-37.76
2022-05-24 15:55:23.051,9.49299819767475,0.58,3.63,1,-17.78
2022-05-24 15:55:23.165,9.60699878633022,0.78,4.53,3,-11.16
2022-05-24 15:55:23.279,9.72099937498569,1.19,6.92,4,-16.19
2022-05-24 15:55:23.395,9.83700156211853,1.26,5.67,5,-4.79
2022-05-24 15:55:23.505,9.94699895381927,0.39,-1.6,5,33.51
2022-05-24 15:55:23.619,10.0609995424747,-0.41,-4.26,3,36.53
2022-05-24 15:55:23.734,10.1760059595108,-0.48,-1.33,0,9.23
2022-05-24 15:55:23.849,10.2910023182631,-0.27,0.62,-3,-8.67
2022-05-24 15:55:23.963,10.4050029069185,0.3,4.39,-2,-36.07
2022-05-24 15:55:24.078,10.5199992656708,0.75,5.45,1,-28.17
2022-05-24 15:55:24.194,10.6360014528036,0.97,5.31,4,-13.06
2022-05-24 15:55:24.308,10.7500020414591,1.35,7.36,6,-12.84
2022-05-24 15:55:24.423,10.8649984002113,1.46,6.61,6,-0.66
2022-05-24 15:55:24.538,10.9800048172474,0.9,1.6,6,20.79
2022-05-24 15:55:24.652,11.0940054059029,-0.24,-5.08,6,48.04
2022-05-24 15:55:24.766,11.2080059945583,-0.68,-3.7,2,34
2022-05-24 15:55:24.881,11.3230023533106,-0.27,1.52,-3,-9.42
2022-05-24 15:55:24.991,11.4329997450113,0.22,3.74,-3,-33.41
2022-05-24 15:55:25.106,11.5480061620474,0.36,2.63,0,-19
2022-05-24 15:55:25.221,11.6630025207996,0.61,4.12,1,-13.43
2022-05-24 15:55:25.336,11.7779988795519,1.15,7.33,3,-26.85
2022-05-24 15:55:25.450,11.8919994682074,1.42,7.15,5,-13.61
2022-05-24 15:55:25.565,12.0070058852434,0.94,2.16,5,18.11
2022-05-24 15:55:25.680,12.1220022439957,-0.07,-3.91,5,39.6
2022-05-24 15:55:25.794,12.2360028326511,-0.57,-3.56,2,30.67
2022-05-24 15:55:25.909,12.3509991914034,-0.4,-0.01,0,-0.83
2022-05-24 15:55:26.023,12.4649997800589,0.14,3.63,-3,-20.28
2022-05-24 15:55:26.138,12.5800061970949,0.77,6.34,0,-41.8
2022-05-24 15:55:26.253,12.6950025558472,0.9,4.64,3,-11.62
2022-05-24 15:55:26.368,12.8099989145994,1.1,5.67,5,-8.37
2022-05-24 15:55:26.483,12.9250053316355,1.55,8.41,6,-14.93
2022-05-24 15:55:26.593,13.0350027233362,1.38,5.16,6,7.01
2022-05-24 15:55:26.708,13.1499990820885,0.29,-3.01,5,42.38
2022-05-24 15:55:26.823,13.2650054991245,-0.83,-7.22,3,48.57
2022-05-24 15:55:26.937,13.37900608778,-0.89,-2.82,-2,13.07
2022-05-24 15:55:27.053,13.494998216629,-0.39,1.45,-4,-24.34
2022-05-24 15:55:27.167,13.6089988052845,-0.01,2.38,-4,-27.17
2022-05-24 15:55:27.281,13.72299939394,0.35,3.63,0,-30.16
2022-05-24 15:55:27.396,13.838005810976,0.77,5.39,3,-18.03
2022-05-24 15:55:27.511,13.9530021697283,1.06,5.91,4,-9.07
2022-05-24 15:55:27.626,14.0679985284805,1.23,6.06,6,-8.33
2022-05-24 15:55:27.740,14.181999117136,0.81,1.87,5,21.36
2022-05-24 15:55:27.854,14.2959997057915,-0.18,-4.25,3,39.25
2022-05-24 15:55:27.969,14.4110061228275,-0.69,-4.03,1,22.24
2022-05-24 15:55:28.083,14.525006711483,-0.64,-1.42,-3,2.75
2022-05-24 15:55:28.194,14.6359998732805,-0.06,3.04,-3,-33.34
2022-05-24 15:55:28.309,14.7510062903166,0.38,4.07,0,-27.91
2022-05-24 15:55:28.423,14.8650068789721,0.6,3.92,4,-11.46
2022-05-24 15:55:28.538,14.9800032377243,1.08,6.85,5,-10.61
2022-05-24 15:55:28.653,15.0949995964766,1.48,7.95,4,-12.77
2022-05-24 15:55:28.768,15.2100060135126,1,2.35,5,10.1
2022-05-24 15:55:28.881,15.3230007737875,-0.55,-8.04,4,61.23
2022-05-24 15:55:28.997,15.4390029609203,-1.39,-8.07,0,43.26
2022-05-24 15:55:29.112,15.5539993196726,-0.99,-1.18,-4,-8.81
2022-05-24 15:55:29.226,15.6679999083281,-0.63,-0.03,-5,-20.18
2022-05-24 15:55:29.341,15.7830063253641,-0.26,1.39,-4,-25.94
2022-05-24 15:55:29.456,15.8980026841164,0.36,4.8,-3,-35.4
2022-05-24 15:55:29.571,16.0129990428686,0.68,4.61,1,-27.07
2022-05-24 15:55:29.685,16.1269996315241,0.55,2.21,3,2.68
2022-05-24 15:55:29.796,16.2380028516054,0.38,1.43,4,8.1
2022-05-24 15:55:29.911,16.3529992103577,-0.38,-3.98,3,36.68
2022-05-24 15:55:30.025,16.4669997990131,-1.07,-6.24,1,35.31
2022-05-24 15:55:30.140,16.5820062160492,-1.12,-3.59,-3,11.22
2022-05-24 15:55:30.255,16.6970025748014,-0.79,-0.77,-3,-16.37
2022-05-24 15:55:30.369,16.8110031634569,-0.4,0.98,-3,-16.38
2022-05-24 15:55:30.484,16.9259995222092,0.23,4.36,0,-31.39
2022-05-24 15:55:30.598,17.0400001108646,0.75,5.78,2,-19.71
2022-05-24 15:55:30.713,17.1550065279007,0.94,5.08,4,-8.81
2022-05-24 15:55:30.828,17.2700028866529,0.82,3.26,5,6.47
2022-05-24 15:55:30.943,17.3849992454052,0.13,-1.8,4,31.84
2022-05-24 15:55:31.058,17.5000056624413,-1.03,-8.16,2,51.36
2022-05-24 15:55:31.174,17.6159977912903,-1.45,-6.44,-3,26.26
2022-05-24 15:55:31.288,17.7299983799458,-1.17,-2.4,-5,-13.3
2022-05-24 15:55:31.401,17.8430031985044,-0.78,-0.46,-5,-21.22
2022-05-24 15:55:31.512,17.9540064185858,-0.32,1.58,-5,-26.68
2022-05-24 15:55:31.627,18.069002777338,0.23,3.97,-3,-36.56
2022-05-24 15:55:31.741,18.1830033659935,0.47,3.54,1,-22.07
2022-05-24 15:55:31.856,18.2979997247458,0.38,1.75,3,3.09
2022-05-24 15:55:31.970,18.4120003134012,0.08,-0.31,4,15.76
2022-05-24 15:55:32.086,18.5280025005341,-0.73,-5.53,3,41.83
2022-05-24 15:55:32.200,18.6420030891895,-1.19,-5.63,0,30.06
2022-05-24 15:55:32.315,18.7569994479418,-1.08,-2.79,-3,2.82
2022-05-24 15:55:32.429,18.8710000365973,-0.75,-0.55,-5,-15.47
2022-05-24 15:55:32.544,18.9860064536333,-0.14,2.9,-4,-36.1
2022-05-24 15:55:32.658,19.1000070422888,0.27,3.5,0,-27.67
2022-05-24 15:55:32.773,19.215003401041,0.37,2.53,2,-4.02
2022-05-24 15:55:32.888,19.3299997597933,0.63,4.19,4,-9.08
2022-05-24 15:55:32.998,19.4400072097778,0.69,3.61,4,3.19
2022-05-24 15:55:33.113,19.5550035685301,-0.07,-2.86,3,32.23
2022-05-24 15:55:33.228,19.6699999272823,-1.29,-9.41,1,52.1
2022-05-24 15:55:33.343,19.7850063443184,-1.74,-7.68,-3,27.17
2022-05-24 15:55:33.457,19.8990069329739,-1.29,-2.08,-7,-15.21
2022-05-24 15:55:33.572,20.0140032917261,-0.79,-0,-5,-33.08
2022-05-24 15:55:33.688,20.1300054788589,-0.66,-1.08,-5,-10.35
2022-05-24 15:55:33.801,20.2430002391338,-0.36,0.71,-3,-23.74
2022-05-24 15:55:33.916,20.3580066561699,0.19,3.86,0,-27.62
2022-05-24 15:55:34.031,20.4730030149221,0.15,1.08,1,2.14
2022-05-24 15:55:34.145,20.5870036035776,-0.55,-4.35,2,26.67
2022-05-24 15:55:34.260,20.7019999623299,-1.57,-9.49,0,49.43
2022-05-24 15:55:34.375,20.8170063793659,-1.65,-5.76,-4,13.76
2022-05-24 15:55:34.489,20.9310069680214,-1.2,-1.74,-6,-18.34
2022-05-24 15:55:34.605,21.0469990968704,-0.74,-0,-6,-26.72
2022-05-24 15:55:34.715,21.157006546855,-0.3,1.54,-4,-30.11
2022-05-24 15:55:34.829,21.2710071355104,0.21,3.76,0,-29.85
2022-05-24 15:55:34.944,21.3860034942627,0.63,4.88,3,-15.89
2022-05-24 15:55:35.059,21.5009998530149,0.89,5.15,5,-6.41
2022-05-24 15:55:35.173,21.6150004416704,0.73,2.78,4,11.67
2022-05-24 15:55:35.288,21.7300068587065,-0.29,-4.77,4,38.88
2022-05-24 15:55:35.403,21.8450032174587,-1.29,-8.46,3,49.58
2022-05-24 15:55:35.518,21.959999576211,-1.25,-3.7,-3,17.2
2022-05-24 15:55:35.632,22.0740001648664,-0.52,2.04,-4,-33.41
2022-05-24 15:55:35.748,22.1900023519993,-0.17,1.63,-4,-21.41
2022-05-24 15:55:35.861,22.303007170558,-0.05,1.1,0,-18.47
2022-05-24 15:55:35.977,22.418999299407,0.25,2.97,2,-9.01
2022-05-24 15:55:36.091,22.5329998880625,0.72,5.42,3,-14.34
2022-05-24 15:55:36.205,22.6470004767179,0.58,2.32,3,6.48
2022-05-24 15:55:36.315,22.7569978684187,-0.48,-5.69,3,41.24
2022-05-24 15:55:36.431,22.8730000555515,-1.64,-10.44,0,55.26
2022-05-24 15:55:36.546,22.9880064725876,-1.64,-5.35,-4,9.14
2022-05-24 15:55:36.660,23.1020070612431,-1.16,-1.4,-7,-19.52
2022-05-24 15:55:36.775,23.2170034199953,-0.71,0.05,-5,-31.61
2022-05-24 15:55:36.889,23.3310040086508,-0.44,0.31,-5,-17.73
2022-05-24 15:55:37.004,23.446000367403,0.18,4.11,-2,-39.48
2022-05-24 15:55:37.119,23.5610067844391,0.48,3.83,2,-18.94
2022-05-24 15:55:37.234,23.6760031431913,0.19,0.14,4,14.69
2022-05-24 15:55:37.349,23.7909995019436,-0.46,-3.76,5,34.31
2022-05-24 15:55:37.463,23.9050000905991,-1.06,-5.81,2,42.53
2022-05-24 15:55:37.578,24.0200065076351,-0.92,-2.04,-2,5.68
2022-05-24 15:55:37.692,24.1340070962906,-0.58,0.04,-4,-15.53
2022-05-24 15:55:37.808,24.2499992251396,-0.23,1.42,-3,-24.62
2022-05-24 15:55:37.922,24.3639998137951,0.23,3.62,0,-26.71
2022-05-24 15:55:38.032,24.4740072637796,0.86,6.69,2,-26.07
2022-05-24 15:55:38.148,24.5899993926287,1.37,8.06,5,-23.45
2022-05-24 15:55:38.262,24.7039999812841,1.23,4.63,7,7.33
2022-05-24 15:55:38.376,24.8180005699396,0.6,0.25,7,30.88
2022-05-24 15:55:38.491,24.9330069869757,-0.3,-4.36,5,46.15
2022-05-24 15:55:38.605,25.0469975173473,-0.75,-3.99,1,30.07
2022-05-24 15:55:38.721,25.1629997044802,-0.62,-0.94,-3,-1.24
2022-05-24 15:55:38.835,25.2770002931356,-0.45,-0.16,-4,-15.75
2022-05-24 15:55:38.950,25.3920067101717,-0.01,2.64,-3,-28.76
2022-05-24 15:55:39.065,25.507003068924,0.45,4.4,0,-28.18
2022-05-24 15:55:39.179,25.6210036575794,0.51,2.87,3,-5.22
2022-05-24 15:55:39.293,25.7350042462349,0.6,3.38,3,1.07
2022-05-24 15:55:39.408,25.8500006049871,0.25,0.12,3,14.07
2022-05-24 15:55:39.519,25.9610038250685,-0.96,-8.07,2,51.03
2022-05-24 15:55:39.633,26.0750044137239,-1.77,-9.35,0,42.25
2022-05-24 15:55:39.749,26.1910066008568,-1.66,-4.91,-5,10.73
2022-05-24 15:55:39.862,26.3040013611317,-1.21,-1.78,-7,-21.07
2022-05-24 15:55:39.978,26.4200035482645,-0.79,-0.37,-6,-27.73
2022-05-24 15:55:40.093,26.5349999070168,-0.47,0.41,-4,-22.82
2022-05-24 15:55:40.208,26.6500063240528,-0.09,2.11,-1,-22.13
2022-05-24 15:55:40.322,26.7640069127083,0.29,3.44,1,-14.78
2022-05-24 15:55:40.436,26.8779974430799,0.2,1.09,2,4.43
2022-05-24 15:55:40.551,26.993003860116,-0.49,-4.12,2,29.79
2022-05-24 15:55:40.666,27.1080002188683,-1.39,-8.28,0,42.99
2022-05-24 15:55:40.780,27.2220008075237,-1.4,-4.53,-4,9.68
2022-05-24 15:55:40.895,27.3370072245598,-0.84,0.1,-6,-25.5
2022-05-24 15:55:41.010,27.452003583312,-0.34,1.67,-4,-32.41
2022-05-24 15:55:41.124,27.5660041719675,0.08,2.86,0,-24.42
2022-05-24 15:55:41.235,27.676997333765,0.73,6.31,2,-23.35
2022-05-24 15:55:41.350,27.7920037508011,1.47,9.38,5,-30
2022-05-24 15:55:41.464,27.9060043394566,1.5,6.46,7,0.35
2022-05-24 15:55:41.579,28.0210006982088,0.87,1.15,7,29.02
2022-05-24 15:55:41.693,28.1350012868643,0.04,-2.72,6,39.37
2022-05-24 15:55:41.808,28.2499976456165,-0.23,-1.28,3,22.94
2022-05-24 15:55:41.923,28.3650040626526,-0.08,1.07,0,0.04
2022-05-24 15:55:42.038,28.4800004214048,0.26,3.24,0,-18.62
2022-05-24 15:55:42.153,28.5950068384409,0.95,7.29,0,-32.4
2022-05-24 15:55:42.268,28.7100031971931,1.38,7.74,3,-30
2022-05-24 15:55:42.382,28.8240037858486,1.41,6.04,6,-6.64
2022-05-24 15:55:42.497,28.9390001446009,1.27,4.85,8,7.94
2022-05-24 15:55:42.611,29.0530007332563,0.65,0.43,6,34.63
2022-05-24 15:55:42.721,29.1629981249571,-0.34,-4.82,5,43.17
2022-05-24 15:55:42.836,29.2780045419931,-0.95,-5.46,2,38.09
2022-05-24 15:55:42.951,29.3930009007454,-1.06,-3.64,-2,15.42
2022-05-24 15:55:43.066,29.5079972594976,-0.77,-0.84,-4,-11.79
2022-05-24 15:55:43.180,29.6219978481531,-0.53,-0.17,-5,-16.32
2022-05-24 15:55:43.295,29.7370042651892,0.02,3.19,-4,-35
2022-05-24 15:55:43.410,29.8520006239414,0.34,3.38,-1,-25.97
2022-05-24 15:55:43.525,29.9670070409775,0.15,0.44,2,2.01
2022-05-24 15:55:43.639,30.0809975713491,-0.24,-1.82,2,20.43
2022-05-24 15:55:43.754,30.1960039883852,-1.14,-7.43,1,41.96
2022-05-24 15:55:43.868,30.3100045770407,-1.86,-9.29,-4,39.75
2022-05-24 15:55:43.983,30.4250009357929,-2.04,-7.56,-7,5.88
